Location: *
(34.0486°S, 61.7880°E)
Time: 13:55:12
(UTC+00:00)

Centaur D AC-29 - Pass Details

Date: 01 April 2020
Orbit: 580 x 36258 km, 26.5° (Epoch: 02 June)

Event Time Altitude Azimuth Distance (km) Brightness Sun altitude
Rises 15:54:27 0° 304° (NW) 11,732 8.1 -27.0°
Reaches altitude 10° 16:08:27 10° 313° (NW) 6,542 6.6 -29.8°
Enters shadow 16:18:45 23° 357° (N) 2,541 4.0 -31.9°
